Theta_e
328 331 330 331 329 327 328 327 325 327 328 327 324 322 323 326 318 314 327 336 326 330 345 345 345 348 346 349 355 356 358 360 360 360 361 362 364 364 363 363 364 364 365 365 366 366 366 365 364 363 361 361 362 362 361 362 363 363 362 361 361 360 359 358 356 356 355 355 354 353 355 355 354 353 353 352 353 353 352 352 353 354 355 355 355 355 356
327 330 329 330 329 326 327 327 328 329 327 328 328 328 330 331 324 323 330 332 333 342 347 345 346 348 347 350 356 358 360 361 362 361 360 361 363 361 361 362 364 365 365 366 367 368 367 365 364 362 360 360 360 360 360 359 359 361 361 361 362 359 357 356 355 355 355 354 353 353 353 354 354 353 353 352 353 353 353 354 354 355 356 356 355 355 355
322 326 327 328 328 326 324 325 328 328 327 329 330 332 337 335 331 337 340 335 338 347 347 346 348 348 349 352 354 357 360 361 363 362 360 361 361 360 361 363 364 365 365 366 366 368 366 364 363 361 359 359 359 359 360 358 358 360 359 359 359 356 355 355 355 354 354 353 353 353 352 353 354 354 354 354 354 355 355 355 355 356 356 356 356 356 355
316 321 323 324 325 325 321 320 324 325 324 327 332 338 343 339 336 342 337 330 338 349 347 347 349 348 347 350 353 357 360 362 364 362 361 361 361 361 362 364 365 365 365 365 365 367 366 364 363 361 358 359 359 359 359 358 358 359 358 357 356 355 355 355 354 354 353 353 353 353 353 353 354 355 354 354 354 353 352 352 353 353 353 354 354 354 354
315 319 321 323 323 318 315 320 327 327 326 331 337 343 347 344 343 341 334 333 345 351 347 347 350 349 348 350 353 355 359 363 364 363 361 360 361 362 363 365 365 364 364 365 366 366 366 365 363 361 358 358 358 359 359 358 357 358 357 356 355 355 355 354 354 354 353 353 353 353 353 353 353 353 352 351 351 350 350 349 349 349 349 350 350 350 351
316 317 320 321 317 313 317 331 339 338 335 336 339 343 345 345 344 343 342 345 348 347 346 348 351 350 349 349 351 353 357 360 362 364 362 359 360 362 364 364 364 363 364 365 365 365 365 365 363 360 357 358 359 358 359 358 357 357 356 356 355 354 354 354 354 354 353 353 353 352 352 352 352 351 350 350 349 348 348 347 346 346 346 346 347 347 348
318 319 320 317 313 318 330 340 340 340 340 341 343 345 345 344 343 344 346 346 346 346 348 348 349 350 349 349 351 353 352 355 359 362 363 361 360 361 363 362 361 363 365 364 363 365 365 363 361 359 358 359 359 358 358 358 357 357 357 356 355 354 354 354 354 354 354 353 352 352 351 350 350 349 349 348 347 346 346 345 344 344 343 342 343 344 345
320 319 317 316 317 327 338 340 336 338 342 343 342 342 343 343 342 344 345 345 345 347 347 347 348 348 349 350 351 350 349 351 354 355 359 361 360 360 362 361 362 364 364 363 364 365 364 363 362 360 358 359 359 358 358 357 357 357 356 354 353 353 352 353 353 353 353 352 352 352 350 350 349 348 347 347 346 345 344 343 343 342 340 341 341 342 343
324 319 316 317 319 323 331 337 338 338 339 340 340 340 342 343 341 343 344 344 344 346 346 348 348 348 351 353 351 348 348 349 350 351 353 356 359 360 360 360 364 365 362 362 364 364 364 364 363 361 358 357 357 356 356 356 356 355 354 353 352 351 351 351 351 351 351 351 351 351 350 349 348 347 346 345 344 343 342 342 342 341 340 340 340 341 342
326 321 319 320 318 319 328 337 337 335 336 338 339 340 342 342 339 340 342 342 343 345 346 347 349 351 355 354 349 345 346 349 350 350 350 352 356 358 358 360 364 363 361 362 363 363 363 363 363 361 359 357 355 354 354 354 354 353 352 352 351 350 350 350 350 350 350 350 350 350 349 348 347 346 345 344 343 342 341 341 341 341 340 340 340 340 341
325 323 322 321 319 324 334 339 335 334 334 336 337 337 338 341 340 339 341 340 341 342 342 344 347 350 352 350 346 342 344 348 350 350 350 351 353 354 357 361 363 361 361 362 362 360 361 361 362 362 360 358 357 355 353 353 352 352 352 352 351 350 350 350 349 349 350 349 349 348 347 346 345 344 344 342 342 341 341 341 341 340 339 339 340 340 340
324 323 322 320 322 331 337 335 334 334 334 336 336 335 336 341 339 337 339 340 340 341 341 341 342 344 345 344 342 339 340 346 349 349 349 351 353 354 355 357 360 361 362 361 360 358 359 360 360 360 360 359 359 357 355 354 354 354 353 353 352 352 351 350 349 349 349 348 348 346 345 345 344 343 342 342 340 340 340 340 340 340 339 339 339 339 339
325 325 324 321 327 335 335 332 333 335 334 334 333 334 338 341 338 336 337 338 338 339 340 340 340 340 340 339 338 336 337 341 346 350 351 351 352 354 354 355 358 360 361 359 356 355 357 359 358 357 359 359 359 358 357 355 355 356 355 353 353 351 350 349 349 349 348 347 347 346 345 345 344 342 341 340 339 339 339 339 339 339 338 337 337 337 336
328 330 329 327 330 333 332 330 333 334 334 333 332 335 339 338 336 337 336 335 336 337 337 339 339 338 337 336 336 335 335 337 341 346 350 352 352 353 355 356 358 359 358 357 355 354 356 357 357 357 357 359 360 359 358 356 356 355 355 354 352 351 350 349 348 348 347 347 346 345 344 343 342 341 340 339 339 339 338 338 338 338 337 337 336 335 334
331 331 331 332 333 332 330 331 335 337 337 336 335 337 338 336 336 337 335 336 336 335 335 336 336 336 336 335 335 334 334 335 338 341 346 350 350 353 354 355 356 356 357 357 355 354 356 356 356 356 357 359 360 358 356 354 354 355 355 354 352 351 350 348 348 348 347 347 346 344 343 342 341 340 339 337 337 337 338 338 337 336 337 337 335 334 334
332 332 333 334 333 331 328 331 335 335 335 335 336 336 337 336 336 337 336 337 336 335 336 336 335 336 336 335 335 335 334 334 335 338 343 347 348 350 351 353 355 354 355 357 355 353 355 357 356 356 357 359 359 358 356 354 354 355 355 353 351 350 349 347 347 347 346 346 344 343 342 341 340 339 337 336 337 337 337 337 336 336 337 336 335 335 335
330 330 331 331 330 329 328 329 331 330 330 331 331 333 335 336 336 336 336 336 336 335 337 336 335 336 336 335 335 335 334 334 334 336 338 342 345 347 347 351 354 354 354 355 355 354 355 357 357 356 357 359 360 358 356 356 356 355 354 351 351 349 348 347 346 345 345 344 343 342 341 339 338 337 336 336 337 337 337 336 336 336 336 335 335 336 336
328 328 328 328 329 330 328 327 327 327 327 328 327 329 332 333 333 334 334 335 335 335 336 337 337 336 335 334 334 335 336 336 336 337 337 337 340 343 344 346 351 353 353 353 353 354 354 355 357 357 357 358 360 359 358 357 356 355 353 351 350 348 347 346 344 343 343 343 341 341 340 338 337 336 335 335 335 335 336 336 336 336 336 335 334 335 336
327 328 329 329 329 329 328 327 328 328 327 327 327 328 330 331 331 332 332 333 334 334 335 336 337 337 336 335 335 336 337 337 337 338 338 337 337 340 342 345 347 349 352 353 353 353 354 354 355 355 356 356 357 357 357 356 354 353 352 351 349 348 347 345 343 341 341 340 339 339 338 337 336 336 335 335 335 335 335 335 335 335 335 335 334 335 336
326 327 327 327 327 327 327 327 329 329 327 327 327 327 328 330 330 331 331 331 331 331 332 334 335 336 336 335 336 335 336 337 339 339 339 339 338 337 340 343 344 345 348 350 351 352 353 354 353 354 355 355 354 355 355 353 352 352 351 349 348 348 346 344 342 341 340 339 339 338 338 337 336 336 335 335 335 335 335 334 334 334 334 335 335 335 335
325 325 326 326 327 327 327 328 329 329 326 326 327 327 328 329 330 330 330 331 330 330 330 331 333 335 335 336 336 335 335 338 340 339 338 338 338 337 338 341 342 343 344 347 349 349 350 353 353 353 354 353 352 353 353 351 351 351 349 348 348 347 346 344 342 340 340 339 338 338 338 337 336 335 333 332 333 334 333 333 333 333 332 334 334 333 334
326 326 327 328 327 328 328 327 328 327 325 326 327 327 328 329 329 329 329 330 330 329 330 331 332 334 335 335 335 335 336 337 338 338 337 336 337 337 337 339 340 342 342 343 346 348 348 350 352 353 354 353 352 350 349 349 350 350 349 348 347 346 346 344 342 340 340 339 339 338 337 336 335 333 331 329 330 331 330 330 331 331 331 331 332 333 333
327 327 327 327 328 329 328 328 327 327 326 326 327 328 329 328 328 329 329 329 330 329 330 330 330 332 334 336 335 334 335 336 337 337 337 337 337 337 337 337 339 341 342 341 343 346 348 348 349 352 353 352 349 347 347 347 347 348 348 348 347 346 346 346 343 342 341 340 340 339 336 335 335 333 331 329 328 327 327 328 328 329 329 329 330 331 332
326 325 326 327 328 329 329 328 327 327 327 326 326 327 328 328 328 329 328 329 330 330 329 329 329 330 333 336 335 335 336 337 337 336 338 340 339 337 337 338 339 340 341 342 342 344 347 348 349 351 350 347 345 347 348 347 345 345 346 346 347 347 347 347 345 343 342 341 340 339 337 335 335 334 334 332 328 326 325 326 326 326 327 327 327 328 330
326 326 326 327 327 328 327 326 326 327 328 328 327 328 328 329 330 330 329 329 330 330 328 328 328 329 332 334 335 335 337 338 338 337 339 341 341 340 339 339 339 340 342 342 342 343 345 348 349 350 349 346 346 348 348 346 345 344 344 344 345 345 346 347 345 344 343 342 340 339 338 336 335 335 335 334 333 329 325 325 325 325 325 326 327 328 329
326 326 326 326 326 326 326 327 327 327 328 329 329 329 329 330 330 331 330 330 330 330 329 329 329 330 331 333 335 337 338 339 339 340 341 342 343 343 342 341 339 338 339 341 341 341 344 347 349 349 348 348 348 348 348 346 344 344 343 343 343 343 343 345 345 344 344 342 341 340 338 336 335 336 335 334 335 334 330 328 327 326 326 326 327 328 329
325 325 325 326 326 326 326 327 328 327 328 329 329 328 329 329 329 330 330 329 329 329 329 330 330 330 330 332 335 339 340 340 341 342 343 342 342 342 342 342 340 338 336 337 338 340 344 348 349 348 348 349 348 347 348 347 345 344 343 342 342 342 341 342 344 344 344 343 342 341 339 337 337 336 335 334 335 335 333 332 331 331 329 328 328 328 328
326 326 327 327 327 326 326 326 327 328 329 330 330 329 329 329 328 328 328 328 328 329 329 329 330 331 332 332 333 338 342 343 344 344 343 343 341 340 340 342 342 341 339 338 338 340 343 347 348 348 348 348 347 346 347 347 346 345 344 343 343 342 341 341 343 343 343 343 342 342 340 338 337 336 335 334 334 334 334 334 334 333 332 330 329 328 327
327 327 327 327 327 327 327 327 327 327 328 328 329 330 329 328 328 327 326 327 328 328 328 329 329 331 332 331 331 335 340 343 343 343 342 342 341 340 340 341 341 342 342 342 342 342 344 345 347 347 347 347 347 346 346 346 346 345 345 345 344 343 342 341 342 342 342 342 342 341 339 338 337 336 334 333 333 334 335 335 336 335 333 332 330 328 327
327 327 327 326 327 327 328 328 328 327 326 326 327 328 328 327 328 328 327 328 329 330 330 330 331 332 332 331 330 333 337 339 340 340 341 341 340 339 340 342 342 342 342 343 344 345 345 345 345 346 347 347 346 345 346 346 346 345 345 345 345 344 343 342 342 342 342 341 341 339 338 338 337 335 334 333 332 333 335 336 336 336 334 333 331 330 329
328 328 327 327 327 327 327 328 329 327 326 326 326 326 327 327 328 328 328 328 330 330 331 332 332 333 332 332 332 333 336 337 337 338 340 340 340 339 340 341 341 340 341 342 343 344 345 345 345 345 346 346 345 345 346 346 346 345 345 345 345 344 342 341 341 341 341 340 339 337 337 337 336 334 333 333 333 333 334 335 336 336 336 334 333 332 332
327 327 327 327 327 327 327 327 328 327 327 327 327 326 326 327 327 327 327 328 328 330 331 332 333 333 333 333 333 334 334 336 337 339 340 340 339 339 340 340 341 341 342 343 343 343 343 343 344 344 344 344 343 344 344 345 346 345 344 344 344 343 341 340 339 340 340 339 337 336 336 336 335 334 333 333 333 333 334 335 336 336 336 335 334 333 334
328 329 328 327 327 327 327 327 328 327 327 328 328 327 327 328 327 327 327 328 329 330 331 332 333 333 333 333 334 334 335 335 337 338 339 339 339 339 339 339 340 341 343 343 342 341 340 341 343 343 342 342 342 342 342 343 345 345 345 344 343 342 341 339 338 339 338 337 336 336 336 335 334 333 333 333 333 333 333 334 335 335 336 335 334 334 334
328 329 328 328 328 328 327 327 327 327 327 327 328 328 329 330 329 328 328 328 328 329 330 331 331 332 333 333 334 335 335 335 336 337 338 340 340 340 339 339 340 341 342 341 340 339 339 340 341 342 341 341 341 341 341 342 343 344 344 344 343 342 341 339 338 338 338 337 337 336 336 335 334 332 332 333 333 333 333 333 334 335 335 334 334 335 334
328 329 329 328 328 328 327 326 326 327 327 327 327 328 329 331 331 330 330 329 328 329 329 330 330 331 332 332 334 335 336 335 335 335 337 339 340 339 339 339 340 340 340 339 339 338 338 338 339 340 340 340 341 341 340 341 342 343 343 343 342 342 341 340 338 338 338 338 337 337 336 335 333 332 331 332 333 333 332 332 332 334 334 334 334 335 334
328 328 328 328 328 329 329 327 327 328 328 327 328 329 330 330 330 330 331 331 330 329 329 329 330 331 332 332 334 335 335 335 335 336 336 338 339 338 338 338 339 339 339 339 339 339 338 338 338 338 338 339 340 340 340 341 341 342 343 343 342 341 340 340 339 338 338 338 338 337 337 335 333 331 331 332 333 333 332 331 331 332 333 333 334 335 333
327 327 327 328 328 328 328 328 328 329 329 328 329 330 330 330 330 330 330 330 331 331 331 331 332 332 332 333 334 334 335 335 335 336 336 337 337 337 338 338 338 338 338 338 338 338 338 338 337 337 338 338 338 339 340 340 341 341 342 342 341 340 340 340 340 339 339 338 338 338 336 334 332 331 331 332 332 332 331 330 330 330 331 331 333 334 332
327 327 328 329 329 328 327 328 328 329 329 329 330 330 330 330 330 330 330 330 331 332 332 332 333 333 334 334 335 334 335 335 335 335 335 336 337 337 338 338 337 337 336 336 337 337 336 337 337 337 337 337 338 338 339 339 339 340 341 342 341 340 340 340 340 340 339 339 339 338 336 333 332 331 331 331 332 331 330 329 329 329 329 330 331 333 332
326 328 330 330 329 329 329 329 329 330 330 330 331 331 331 331 331 331 331 331 332 332 332 333 334 335 336 336 336 335 334 334 334 335 335 335 336 337 337 337 337 337 337 337 336 336 335 336 336 336 337 337 338 338 338 339 339 339 340 341 341 340 340 340 339 339 340 339 339 338 336 333 332 331 330 330 331 331 331 330 330 330 329 329 330 331 332
328 329 330 329 329 329 329 329 329 330 330 331 331 332 332 332 332 332 332 332 332 332 332 333 334 335 336 337 337 336 336 335 335 336 336 337 337 337 337 337 337 337 337 336 336 336 336 337 336 337 337 338 338 338 338 339 339 339 340 341 341 340 340 340 339 338 338 338 337 336 335 333 331 330 330 330 331 331 332 331 331 330 330 329 328 329 330
328 328 328 328 329 329 329 329 329 329 330 331 332 332 332 332 332 332 332 332 331 331 332 334 334 335 336 337 337 337 337 336 336 337 337 338 338 337 336 335 335 335 336 336 336 336 336 336 336 337 337 338 338 339 339 339 340 340 340 341 340 340 340 339 338 338 338 338 337 336 335 333 331 330 330 330 331 331 331 331 330 331 331 330 329 329 328
327 327 328 328 328 329 329 330 330 329 329 330 332 332 332 332 332 332 332 331 330 329 331 333 333 333 334 335 336 336 336 336 336 337 337 338 337 336 335 334 335 335 335 335 335 335 336 336 337 337 338 338 339 339 339 339 339 340 340 340 340 340 339 339 338 337 338 338 338 337 335 333 331 331 331 330 330 330 331 331 331 331 331 331 331 330 328
327 327 328 329 328 328 329 330 330 330 329 330 332 333 333 332 332 331 331 331 330 330 331 331 330 330 332 334 335 336 337 337 337 338 337 336 335 335 335 335 335 334 334 335 336 336 337 337 338 338 338 339 339 339 339 339 339 339 340 340 340 339 339 338 338 337 337 337 338 337 335 334 332 331 331 331 331 332 332 332 332 333 332 332 332 331 330
327 327 328 329 328 328 328 328 329 330 330 330 331 332 332 332 332 331 330 329 330 330 330 330 329 329 330 332 332 333 335 336 337 337 336 335 335 335 335 335 335 335 335 335 336 336 336 337 337 337 337 338 338 338 338 339 339 339 339 339 339 338 338 338 338 337 336 336 337 337 336 335 334 334 334 334 334 334 334 333 333 333 333 333 332 331 331
326 326 328 329 329 329 328 327 328 329 330 330 331 332 330 329 331 331 330 330 331 331 331 330 330 329 330 331 331 331 332 335 336 336 335 335 335 335 335 335 335 336 335 335 335 337 337 336 336 336 336 337 337 337 338 338 339 338 338 338 338 338 337 337 337 336 336 336 336 336 336 335 335 336 336 335 335 335 334 334 333 333 333 333 333 332 331
325 327 329 329 329 329 328 327 327 329 330 331 332 332 329 327 329 332 331 330 331 331 331 330 330 330 331 332 332 332 334 335 334 334 335 335 335 334 334 333 334 335 335 335 336 337 337 335 334 335 335 335 335 336 338 339 338 338 338 338 338 337 337 336 336 336 335 335 336 336 336 335 335 336 336 335 335 334 334 333 333 334 334 334 333 332 331
327 329 329 329 329 330 329 328 328 329 329 330 331 331 328 327 330 332 331 331 331 332 331 331 331 331 331 331 331 332 333 332 331 330 332 334 335 335 334 334 334 334 335 335 336 336 334 333 334 335 335 334 335 337 338 338 338 338 338 337 337 336 335 335 335 335 334 335 335 336 335 334 334 334 334 334 334 334 334 334 334 334 335 335 334 332 332
330 329 328 329 330 330 329 329 329 329 329 330 330 329 328 328 330 330 331 331 331 330 329 330 332 331 331 330 331 331 331 331 330 329 330 331 333 334 335 335 335 334 335 335 335 335 333 333 333 334 335 335 336 338 338 338 337 337 336 335 335 334 334 334 335 335 334 334 334 334 333 332 332 332 332 333 333 333 334 334 334 334 334 334 333 332 332
330 330 329 330 331 331 330 330 330 329 329 328 328 328 329 330 330 330 332 334 332 330 330 332 332 331 331 331 330 330 330 330 330 331 331 331 332 334 335 335 335 334 334 335 335 335 334 333 333 334 334 335 335 335 335 335 334 334 334 334 333 333 333 333 333 332 331 331 331 331 331 331 331 331 332 332 332 332 332 332 333 333 333 333 333 332 332
330 330 330 332 332 331 329 328 328 329 328 328 329 331 332 331 330 331 333 334 333 332 333 333 331 331 331 331 331 331 331 331 331 332 333 333 333 333 334 334 334 334 334 335 335 335 334 334 334 334 334 333 333 333 333 332 332 332 333 332 332 331 331 331 330 330 330 330 330 330 330 330 330 330 330 331 331 331 331 330 330 331 331 331 331 331 331
329 330 329 330 332 333 332 330 329 328 328 329 331 334 334 332 330 331 332 333 332 333 333 332 331 330 330 331 331 331 331 332 331 332 333 333 334 333 333 333 333 333 333 334 334 335 334 334 333 333 333 333 333 332 332 332 331 331 331 330 330 330 330 330 330 329 329 330 330 330 329 329 329 328 329 329 329 329 330 330 330 330 331 331 331 331 332
327 327 328 329 331 333 334 333 332 330 329 330 332 333 334 333 333 332 332 331 331 332 332 332 331 330 330 330 330 331 331 331 331 331 332 333 333 333 333 333 333 333 333 333 333 333 333 333 333 333 333 332 332 331 331 331 331 330 330 329 329 329 330 330 330 329 329 330 330 330 329 328 327 327 328 328 329 329 330 330 331 331 331 330 330 331 331
Wind_Speed
13 13 10 9 10 10 11 11 12 12 10 9 8 10 9 6 6 8 4 5 8 5 7 10 11 11 9 8 5 3 5 6 7 9 10 9 9 10 10 10 10 9 9 9 9 10 10 10 10 10 9 9 9 10 11 12 12 12 12 12 11 10 9 8 8 8 8 8 9 10 10 10 9 9 9 10 10 9 9 10 9 9 9 9 10 11 11
13 13 13 12 11 11 12 12 13 13 12 10 9 10 8 7 9 10 9 11 8 4 8 9 10 9 7 5 4 3 5 7 8 10 11 10 9 10 10 10 9 9 9 9 9 10 11 11 11 11 10 10 10 10 11 11 12 12 12 12 11 9 9 7 6 6 7 7 8 10 10 10 10 9 9 9 8 8 8 8 7 7 8 9 10 11 11
12 13 14 14 12 13 13 14 14 13 12 11 10 8 5 6 9 8 9 11 5 5 9 10 8 8 6 3 3 4 5 7 9 10 10 11 10 10 10 10 9 9 9 9 9 10 11 11 12 12 11 11 11 11 11 11 12 11 11 12 11 10 9 7 6 6 7 7 8 9 10 10 9 9 8 8 8 7 7 7 7 7 7 8 9 9 9
10 11 12 12 12 13 15 16 16 16 15 11 6 3 2 3 6 6 7 8 3 5 10 10 7 8 7 4 1 4 5 5 7 9 10 11 11 10 10 9 9 9 9 9 10 10 11 11 11 12 12 11 11 11 11 12 12 11 11 11 11 10 9 8 8 8 8 9 9 9 9 10 10 9 9 8 8 7 6 6 6 6 6 7 7 8 8
8 8 8 7 9 12 12 10 10 12 13 9 3 3 2 1 3 5 5 4 5 8 9 9 8 9 7 5 3 2 4 4 6 8 8 10 11 10 10 10 9 9 9 9 10 11 11 11 12 12 12 12 12 12 12 12 13 12 11 11 11 10 10 10 10 10 10 10 9 8 8 9 9 9 9 8 7 5 4 3 3 4 5 5 6 7 6
7 8 7 7 9 10 5 3 7 6 4 6 4 3 4 3 1 2 2 4 7 8 8 8 9 8 6 4 5 5 4 3 5 6 6 8 10 10 10 10 10 9 8 9 10 11 11 12 12 12 12 11 12 12 12 12 12 12 12 11 11 11 11 11 11 11 10 10 9 8 8 8 8 8 7 5 4 3 3 4 4 5 7 7 8 8 8
7 7 6 9 9 4 3 7 9 9 4 1 2 4 7 5 4 3 3 4 7 7 7 8 7 4 3 4 7 9 9 7 5 5 5 6 8 9 9 9 9 9 10 10 11 11 11 12 13 12 12 13 12 12 13 12 12 12 12 12 11 12 12 12 12 11 11 11 10 10 9 8 8 7 6 5 4 3 4 5 5 6 7 8 9 9 9
6 6 7 8 4 2 3 4 7 8 5 4 1 3 6 7 6 5 6 7 8 7 7 7 4 3 6 8 10 12 12 11 9 7 6 5 6 8 8 9 10 10 12 13 13 13 12 12 13 13 13 14 14 13 13 13 13 12 12 12 12 12 12 12 12 11 11 11 11 11 10 9 8 7 6 5 4 4 4 5 6 6 7 7 8 8 8
6 6 7 7 5 3 5 2 6 6 5 5 4 3 3 7 7 7 7 8 9 8 8 7 3 5 6 5 8 14 15 13 11 9 7 7 6 6 7 9 11 11 13 14 14 15 14 14 13 13 14 14 14 13 13 13 13 12 12 12 12 12 12 12 12 11 11 11 12 12 11 10 8 7 5 5 5 5 5 6 6 6 6 6 6 7 6
5 7 7 7 8 5 2 4 7 6 4 4 4 4 1 5 7 8 8 9 11 10 9 9 3 5 5 1 7 13 16 14 12 9 7 7 7 7 6 7 9 11 12 13 15 16 16 15 14 14 15 15 14 13 13 13 14 14 13 12 12 12 12 12 12 11 11 12 12 12 11 9 8 6 5 5 5 5 5 6 6 5 5 5 5 6 6
6 7 7 7 7 2 4 7 8 8 5 3 4 5 3 3 7 8 8 9 11 10 10 10 7 1 1 4 7 12 16 14 12 9 6 5 6 6 6 6 9 11 12 13 15 16 16 17 16 16 16 15 14 13 13 14 14 14 13 13 13 12 11 11 11 12 12 12 11 11 10 9 7 6 6 5 6 6 6 6 6 5 5 5 5 5 5
8 9 8 7 4 2 8 11 10 9 7 3 7 8 3 4 6 7 8 9 10 11 9 9 9 7 5 5 7 12 14 14 12 9 5 4 5 4 5 7 8 10 13 14 15 16 17 17 18 18 17 16 14 14 13 14 14 13 13 12 12 11 10 10 11 11 11 11 11 10 9 8 7 6 5 5 6 6 6 6 6 6 6 5 4 4 4
8 9 8 7 2 3 10 12 11 10 7 5 6 5 1 4 5 5 7 9 9 10 10 8 8 8 6 6 7 11 14 14 14 12 8 6 6 5 3 5 7 9 12 13 15 16 16 17 18 18 18 16 15 14 14 14 14 13 12 12 11 11 10 10 10 11 11 11 10 9 8 7 5 5 5 6 6 6 6 6 6 6 6 6 5 5 5
6 6 7 7 3 4 12 12 9 9 6 4 3 3 3 3 5 5 5 7 8 9 9 8 7 7 7 8 9 11 14 15 15 15 13 9 7 6 5 1 4 7 9 12 14 15 16 17 18 18 18 17 15 14 15 15 14 13 12 12 12 11 10 10 10 10 10 9 9 8 6 5 5 5 5 6 6 6 7 7 7 7 7 6 6 5 5
5 5 6 7 4 5 13 12 7 6 6 3 3 5 5 4 5 5 6 5 6 8 8 7 8 8 8 9 10 11 13 15 15 16 16 15 11 8 5 2 2 5 7 10 13 14 14 16 17 17 17 17 16 15 15 14 13 13 12 12 11 9 9 9 9 9 9 8 7 6 5 5 5 6 6 6 6 7 7 7 7 7 7 7 6 5 4
3 4 3 3 4 5 10 9 5 5 6 5 5 6 6 6 6 6 6 6 6 8 8 8 9 9 9 9 10 11 12 13 15 16 18 19 17 13 9 6 3 4 6 8 11 12 13 14 15 16 16 16 16 16 15 14 13 13 12 12 10 9 8 8 8 8 8 7 6 5 5 5 6 6 6 6 7 7 7 7 7 7 7 6 5 5 5
3 5 5 4 4 4 6 5 5 6 7 7 7 7 6 6 6 6 7 8 8 8 8 9 9 8 9 10 10 9 10 11 12 15 17 19 20 18 15 14 10 6 7 7 8 11 12 12 13 14 14 15 15 15 14 14 14 13 13 12 10 9 8 7 7 7 7 7 6 6 6 6 7 7 7 7 7 8 8 8 7 7 7 6 5 6 5
6 6 6 6 4 3 5 5 4 5 7 8 8 8 7 6 7 7 7 9 9 9 9 8 8 8 8 9 10 9 8 8 10 12 14 17 20 21 20 18 16 11 6 7 8 9 10 11 12 13 13 14 14 13 12 12 13 13 13 12 10 9 8 7 7 7 7 7 7 7 7 7 7 8 8 8 7 8 8 8 7 7 6 6 6 5 5
6 3 2 4 5 5 6 6 4 3 4 7 7 7 7 7 7 7 8 9 9 9 8 8 9 9 9 9 9 7 6 7 8 10 11 13 16 20 20 19 18 16 11 8 8 9 10 10 10 11 13 13 11 10 11 11 12 13 13 12 11 9 8 7 7 7 7 7 7 8 8 8 7 8 8 7 7 7 7 7 7 7 6 6 5 5 5
7 6 4 5 9 8 6 5 5 3 4 7 8 8 8 8 7 7 7 8 8 8 8 8 9 9 8 9 8 6 5 5 4 6 10 12 13 16 18 18 18 16 15 13 12 10 8 8 8 9 10 11 10 8 8 10 12 14 13 12 11 10 9 8 8 8 9 9 9 8 8 8 7 6 5 5 6 6 5 5 5 6 7 7 6 5 4
7 8 5 6 10 8 2 1 5 8 8 9 10 10 9 8 8 7 8 8 8 9 9 9 8 9 8 7 7 6 5 5 4 4 7 10 12 13 15 16 15 14 14 13 13 13 12 9 7 6 7 9 9 8 9 11 14 16 16 16 14 13 13 12 11 11 11 11 11 10 8 7 6 4 3 3 3 2 3 5 4 4 3 4 5 5 4
5 5 6 8 8 8 4 4 8 10 11 11 12 11 9 8 8 8 9 10 9 10 10 9 8 8 7 6 6 6 4 4 4 4 6 8 10 12 14 14 12 11 12 12 12 12 12 11 9 7 6 6 8 12 16 17 18 18 19 19 17 16 16 15 14 14 13 12 12 10 8 7 6 5 6 7 6 4 5 7 8 7 4 2 3 4 3
6 8 9 8 7 8 8 9 11 10 10 11 11 10 9 8 8 9 10 10 10 10 10 10 10 8 7 7 7 6 5 3 2 3 4 4 6 9 12 13 12 9 10 11 12 13 12 11 10 9 5 5 10 17 21 21 21 22 24 23 21 21 21 19 18 17 15 13 12 10 9 8 6 6 6 8 9 10 9 8 10 10 9 6 5 5 3
9 10 10 9 9 10 11 12 13 12 11 11 11 10 10 9 9 10 10 11 11 11 10 11 11 9 8 8 8 7 7 5 4 5 5 5 6 8 10 11 9 8 9 10 11 13 13 10 10 8 3 10 15 18 20 21 23 25 26 26 26 24 21 19 20 19 16 13 13 12 11 9 8 7 6 6 7 9 9 9 9 10 9 8 7 8 7
10 10 10 10 11 12 12 12 13 12 11 10 10 10 11 11 12 12 12 11 12 12 11 11 12 12 10 9 8 8 8 6 6 6 6 6 8 9 10 9 6 4 6 7 9 12 13 9 8 6 3 14 19 20 20 21 24 26 28 30 30 26 19 14 15 18 17 15 16 16 15 13 11 9 8 7 6 6 6 6 6 7 8 7 8 10 10
10 11 11 12 13 12 11 11 10 10 10 11 10 11 13 15 15 15 15 14 14 14 13 12 12 12 11 10 9 9 8 8 7 6 7 7 8 8 9 8 4 2 3 6 9 12 12 9 6 4 6 14 18 18 18 20 23 27 31 33 32 29 23 15 13 15 16 16 17 18 18 17 15 12 11 9 8 8 8 7 6 6 7 8 9 10 11
11 11 11 12 12 11 10 10 11 11 12 13 14 14 16 17 16 16 16 16 16 16 15 14 12 12 11 10 9 9 8 8 7 6 7 7 6 6 6 6 4 4 5 7 10 13 12 8 6 7 8 12 14 15 16 17 19 23 29 32 32 28 23 17 14 14 15 15 15 16 18 18 17 15 13 11 9 9 10 9 8 8 8 9 10 12 12
10 10 10 11 12 13 13 14 14 14 14 15 15 15 16 16 16 15 15 15 15 15 15 14 13 12 10 9 9 8 7 7 6 6 7 6 5 4 3 3 5 7 9 10 12 13 12 9 7 8 9 10 11 13 15 16 17 19 23 27 26 23 21 19 17 15 15 15 13 13 14 16 17 16 14 12 11 11 11 10 10 11 11 10 11 13 14
10 10 10 11 13 14 15 15 15 14 15 15 15 15 15 14 14 13 13 13 13 13 13 13 13 12 11 10 9 7 6 6 6 6 7 6 5 4 4 3 5 8 10 12 13 13 11 9 9 9 8 8 10 13 14 16 17 18 19 21 20 18 18 19 18 17 17 15 14 13 12 13 14 15 14 13 12 11 11 11 11 11 12 13 13 14 14
11 11 12 13 14 15 15 15 15 14 14 14 14 13 13 13 13 13 13 12 11 11 12 13 12 12 12 12 10 8 7 7 7 7 7 7 6 5 4 5 6 8 9 10 11 10 9 9 10 9 8 7 10 13 14 16 18 19 19 19 19 17 18 20 21 21 19 16 15 15 13 12 12 13 14 14 14 12 11 12 11 12 13 14 16 15 14
13 14 15 15 14 15 14 12 12 13 13 13 13 14 14 14 14 14 13 11 10 11 12 13 12 12 12 12 10 10 9 8 8 8 8 8 7 5 5 6 7 8 9 9 9 9 9 9 10 9 7 7 9 12 14 16 17 18 19 20 19 18 19 21 22 22 19 17 16 16 15 13 12 13 13 14 15 14 13 13 13 13 13 14 15 15 15
15 16 17 15 13 14 13 11 11 12 13 13 13 13 13 13 13 13 12 12 12 12 12 12 12 12 12 12 11 10 10 10 10 9 9 8 8 6 6 8 9 10 10 9 9 10 10 10 10 9 8 8 10 13 15 16 17 17 18 19 19 18 20 22 23 20 19 18 17 16 16 14 14 14 14 14 15 15 14 14 14 14 14 14 15 14 15
14 14 15 14 13 14 14 12 11 12 13 12 12 12 11 11 11 11 12 12 14 14 13 12 13 13 12 11 11 11 11 11 10 10 10 10 9 8 7 8 9 10 10 10 10 11 11 11 11 10 9 9 11 13 14 16 16 16 15 16 17 17 18 21 23 21 19 18 17 17 17 16 15 15 15 15 15 15 14 14 14 14 14 14 14 14 15
12 12 13 14 13 13 13 13 12 11 11 12 11 11 11 11 12 12 12 13 13 14 14 14 15 14 13 12 12 12 11 10 8 9 10 10 9 8 8 9 10 10 10 10 11 12 13 13 12 11 10 11 12 13 14 15 16 16 15 15 17 17 16 19 22 23 21 18 17 17 17 17 17 17 16 15 15 15 14 14 14 14 14 14 13 14 16
14 13 14 15 14 14 13 13 12 11 11 11 11 11 11 12 13 13 14 14 14 14 15 16 15 14 13 13 12 12 11 10 10 11 11 10 10 10 10 10 10 10 10 11 12 13 14 14 13 12 12 12 13 14 15 15 16 17 16 16 17 19 18 18 21 23 22 20 19 19 19 19 19 18 17 16 16 15 15 14 14 14 14 14 14 14 16
17 15 13 13 14 15 14 13 12 12 10 10 11 11 11 13 14 14 14 14 14 15 15 15 15 14 14 13 12 12 12 12 12 12 12 11 11 11 11 10 10 10 10 11 12 12 13 13 13 13 13 13 14 16 16 16 17 17 17 17 18 20 20 19 21 23 23 21 20 20 20 19 18 18 17 16 15 15 14 14 13 13 14 14 14 14 15
18 16 13 12 14 15 14 13 13 12 11 11 11 11 12 13 14 14 13 13 13 13 14 14 14 14 13 13 13 13 13 12 12 11 11 11 11 11 11 10 10 10 10 10 10 10 11 11 11 11 12 13 14 16 17 17 18 18 17 18 21 21 20 20 21 23 23 22 21 20 19 19 18 17 17 16 16 15 14 14 14 13 13 14 14 14 15
18 16 13 12 13 13 14 14 13 12 12 12 12 12 12 12 12 13 13 13 13 13 13 14 14 13 13 14 14 13 13 12 12 12 11 11 11 11 11 11 10 11 11 10 9 10 11 11 10 11 13 15 15 15 16 18 19 18 18 19 22 22 21 20 21 21 21 21 20 19 19 19 19 18 18 17 16 15 14 14 13 13 13 13 14 14 15
15 15 14 13 13 13 13 14 13 12 12 12 11 11 11 11 12 12 12 12 12 12 12 12 12 11 11 12 12 12 12 12 11 11 11 11 11 12 12 12 12 13 13 12 12 13 13 12 12 13 15 15 15 15 15 16 18 19 20 20 21 22 22 20 19 18 18 19 20 19 18 18 18 17 17 17 15 15 14 13 12 13 12 12 13 14 15
12 13 15 15 14 13 13 13 13 13 12 11 10 10 10 10 11 11 11 11 11 11 11 11 11 10 10 10 10 10 10 10 9 9 9 10 11 11 11 11 12 13 12 12 13 13 13 13 14 15 16 16 15 15 15 15 17 19 20 20 21 22 21 19 17 17 18 19 19 18 18 18 18 17 17 16 16 15 14 13 13 12 12 12 12 13 14
14 16 18 16 15 14 14 13 13 13 13 10 9 9 9 9 9 10 10 10 10 10 11 11 11 10 10 10 9 9 8 8 8 7 7 8 10 9 8 9 10 10 9 9 12 13 14 14 15 16 16 16 15 14 14 15 16 18 19 19 20 22 21 19 18 17 18 20 21 20 19 19 19 17 17 16 16 15 15 14 14 13 13 12 12 12 12
16 18 18 16 15 15 15 13 13 13 14 12 10 9 8 8 8 9 9 8 8 10 11 12 12 12 11 10 9 9 8 7 7 8 8 9 10 9 7 8 9 8 8 10 12 14 15 15 16 17 17 16 15 14 13 14 15 16 17 17 19 21 23 22 20 18 17 18 20 20 20 19 19 18 17 16 16 16 15 15 14 14 14 13 12 11 11
17 17 16 15 16 16 16 15 14 15 15 14 12 10 8 7 7 8 9 9 9 9 9 9 11 14 13 10 8 8 8 7 7 8 8 9 10 11 11 11 11 9 10 11 12 13 14 15 15 15 15 15 14 13 13 14 15 15 15 16 18 19 21 21 20 19 18 18 18 19 19 18 18 17 17 17 16 16 16 15 14 14 14 13 12 12 13
18 17 15 14 15 16 15 15 16 16 15 14 13 11 10 8 7 7 8 9 9 8 7 6 8 11 12 9 7 7 8 7 6 6 7 8 8 9 9 10 9 9 10 11 13 14 14 14 13 13 12 13 13 13 13 15 16 15 14 15 17 19 19 19 18 18 18 18 19 20 19 18 17 16 16 16 15 15 15 15 14 13 13 13 12 13 14
19 19 16 15 14 14 13 14 15 15 15 15 13 10 10 10 9 6 6 7 8 7 7 6 5 7 9 9 7 7 8 8 7 6 6 6 5 4 4 5 7 9 10 11 13 13 13 13 12 12 11 12 13 13 13 14 14 14 15 16 17 19 20 18 17 17 18 18 18 19 18 17 16 14 14 14 14 14 14 14 13 13 13 12 12 12 14
20 19 15 13 13 13 14 15 15 14 14 13 10 9 12 13 11 6 4 5 6 5 5 5 4 5 7 8 7 7 6 6 6 7 7 6 6 6 7 8 8 9 10 10 10 11 12 12 12 11 11 11 11 11 11 12 12 14 16 17 17 18 18 17 16 17 18 18 17 16 15 15 15 14 12 12 12 12 12 13 14 13 12 11 12 13 14
16 16 12 11 12 14 15 16 15 14 13 11 8 9 14 15 10 5 5 5 4 4 5 4 4 5 6 6 6 5 4 5 6 7 8 8 7 7 8 8 7 7 8 8 8 9 11 12 11 9 7 8 8 9 10 11 13 15 17 17 16 16 16 16 15 15 15 15 14 13 13 15 15 13 12 11 10 11 12 14 13 12 10 10 11 12 13
14 14 12 10 11 13 14 14 12 10 10 9 9 11 15 13 7 5 6 5 4 5 6 5 5 5 4 4 4 4 4 4 4 5 8 11 10 8 6 6 6 7 8 7 7 9 12 12 12 10 5 1 4 7 8 10 12 14 15 14 13 14 13 13 12 12 12 12 12 11 11 12 13 12 11 11 11 11 12 12 11 9 8 9 10 12 13
15 15 12 9 7 8 10 11 10 9 9 11 13 14 13 9 3 2 4 4 4 6 6 5 6 6 6 5 6 6 6 5 4 5 8 12 12 9 7 7 7 8 8 7 6 9 11 12 11 10 8 5 3 2 4 7 11 12 12 11 11 11 10 10 11 12 12 13 12 11 10 9 10 9 10 11 12 11 10 9 8 7 8 8 9 11 12
14 14 12 10 6 3 3 7 10 10 10 10 11 10 8 6 5 6 6 6 6 6 7 7 8 9 8 8 8 8 7 7 7 7 8 9 10 10 10 9 8 8 9 8 7 8 10 11 10 10 9 8 8 7 7 9 11 11 12 12 12 12 12 12 12 11 11 12 12 10 7 6 6 8 10 11 10 8 8 7 6 7 8 8 8 9 9
13 12 11 11 9 5 2 4 7 8 9 9 8 6 6 6 7 8 9 8 8 7 7 8 10 10 10 10 10 9 10 10 10 10 9 8 9 10 11 10 10 10 10 9 9 9 10 11 12 12 11 10 10 9 9 10 11 11 12 14 14 14 14 15 14 12 12 12 11 10 8 6 6 9 10 9 7 6 5 4 3 4 4 4 4 5 5
13 12 10 9 10 9 6 3 4 6 8 9 9 8 7 6 6 8 9 10 9 8 7 7 9 11 12 12 11 10 10 11 11 10 10 9 10 10 11 11 11 11 11 10 10 10 11 12 13 13 12 12 12 12 12 12 12 12 12 13 14 14 14 14 13 13 13 13 12 11 10 8 7 7 6 6 6 6 6 5 4 4 4 4 4 5 5
Wind_Direction
268 270 268 266 270 270 270 274 278 283 286 284 278 273 278 292 272 263 322 337 291 317 25 16 4 355 334 319 295 223 166 158 152 148 150 148 149 152 152 154 155 158 160 159 162 163 160 162 164 162 167 171 171 170 165 156 148 145 147 151 161 177 190 191 187 188 190 193 196 193 191 196 202 204 209 209 207 211 218 222 228 235 238 235 234 236 238
272 269 267 266 265 265 264 264 268 273 276 279 284 283 277 271 267 271 292 299 298 12 24 3 356 344 326 316 293 241 179 171 165 160 161 161 161 164 162 159 160 161 160 160 162 161 160 161 160 161 164 168 170 167 162 160 153 147 148 152 158 173 186 192 193 189 188 189 190 189 188 190 195 198 202 202 200 204 212 217 224 227 228 229 231 234 236
272 267 267 264 259 262 265 263 263 266 267 266 264 265 268 267 267 273 287 285 284 51 18 352 345 335 328 313 248 227 199 185 178 172 170 167 170 172 167 162 163 162 161 162 164 163 164 163 160 162 166 167 167 160 156 158 155 151 154 155 160 172 177 175 179 183 185 186 186 188 190 189 188 190 193 190 188 194 198 201 208 213 219 227 230 233 237
270 269 265 262 265 268 265 263 262 256 251 253 252 241 258 278 275 278 279 275 290 18 354 341 343 341 338 339 253 215 211 204 194 189 179 172 173 174 169 165 166 167 165 167 169 166 164 161 159 160 162 164 165 161 159 160 155 154 159 160 163 170 168 167 173 179 182 183 183 187 189 185 178 174 176 176 175 182 188 194 206 216 222 230 235 237 241
271 269 271 285 286 273 263 267 276 258 240 232 203 144 121 313 284 278 278 302 352 349 339 337 340 342 343 351 358 290 238 229 219 213 195 181 177 175 172 169 169 172 173 171 169 163 160 159 157 158 161 164 166 165 163 161 159 159 161 161 163 166 165 168 177 181 179 175 177 181 177 168 161 161 165 165 163 170 183 202 230 243 245 250 255 254 256
270 270 287 295 272 261 264 17 10 337 252 218 200 135 89 59 10 321 316 353 353 342 342 341 333 333 337 346 4 360 332 277 241 237 227 200 184 178 175 173 173 174 171 167 164 159 156 156 155 158 161 163 164 164 160 158 161 164 162 161 164 165 166 171 177 178 173 170 173 173 166 158 154 158 163 160 163 183 207 229 244 255 256 257 259 262 264
270 279 280 267 257 260 52 55 30 7 6 115 140 101 74 47 31 33 16 5 360 353 351 342 333 344 47 79 56 34 16 354 317 280 262 229 198 188 181 176 176 171 164 162 159 155 153 152 155 160 162 161 161 161 158 158 163 167 164 163 166 168 170 173 175 175 173 174 176 172 169 167 165 171 175 171 183 207 224 238 244 250 254 254 254 256 259
259 261 248 248 251 104 110 76 34 10 8 24 42 136 85 43 19 14 10 10 8 3 358 356 5 104 123 106 68 37 21 6 347 321 297 277 231 206 192 180 174 170 167 164 157 152 150 151 155 160 161 161 160 158 159 161 164 167 166 167 170 171 172 174 175 177 178 178 178 173 172 175 177 180 185 191 210 227 235 241 240 241 247 248 248 251 253
248 256 251 250 254 216 188 127 33 9 358 358 321 235 94 49 23 6 8 10 6 6 12 16 48 160 169 127 60 25 10 360 346 327 307 298 282 245 213 189 175 169 168 164 155 152 151 151 155 158 159 162 161 159 163 166 166 169 171 173 174 174 176 178 179 182 184 182 179 176 176 180 183 185 194 210 228 239 238 235 232 231 238 239 240 244 245
249 260 261 256 253 244 159 62 28 2 343 336 300 242 150 48 24 9 9 13 9 9 17 20 28 199 212 86 32 8 356 353 349 335 307 289 280 261 234 194 172 167 167 164 159 157 155 153 155 156 158 162 163 164 169 171 171 174 177 178 179 179 180 182 183 187 189 186 181 178 179 184 188 193 205 218 228 234 237 237 231 227 232 236 236 236 235
258 258 257 258 254 248 40 20 3 354 346 313 242 216 207 14 14 10 7 14 16 13 19 26 31 85 124 27 11 354 351 355 355 346 328 303 281 254 228 199 178 169 164 162 162 162 159 157 158 159 160 162 164 167 172 175 176 180 183 182 181 180 180 182 184 187 188 186 183 181 185 191 195 201 207 216 223 225 229 235 232 228 231 235 234 230 227
254 251 250 261 254 70 25 1 349 347 345 287 233 222 220 1 10 19 13 11 13 12 16 34 44 50 47 26 3 356 357 3 5 3 360 348 327 282 228 206 187 171 164 165 169 170 168 166 165 165 165 167 169 171 173 178 182 185 185 183 179 178 177 177 180 183 184 184 182 184 191 194 198 209 216 220 222 221 225 230 226 223 229 234 233 226 222
255 250 252 263 240 56 8 350 345 341 321 255 237 236 237 357 357 20 20 8 8 9 13 31 50 57 54 37 19 10 11 16 16 13 14 13 0 341 277 207 185 176 174 177 180 178 174 172 172 171 171 174 176 175 176 183 188 185 182 179 177 176 176 174 175 177 179 179 180 183 189 188 191 211 224 226 225 222 225 230 228 225 226 225 226 226 231
268 254 260 266 239 40 360 341 345 349 316 250 249 293 275 311 339 352 1 1 2 3 7 19 33 45 47 41 32 23 20 24 22 17 17 18 15 9 3 359 191 196 192 191 193 187 179 178 179 177 177 178 178 180 183 188 189 181 176 175 173 173 173 172 173 176 176 178 179 181 182 184 195 212 221 227 231 228 226 226 229 230 222 214 222 234 238
295 264 261 263 248 15 358 341 347 4 342 310 320 311 295 313 332 323 321 337 348 347 350 355 358 6 16 26 33 30 25 24 22 22 21 18 16 16 9 3 242 231 217 205 204 197 185 183 184 183 183 182 180 185 191 191 184 175 170 168 166 165 167 169 174 179 178 177 177 179 184 196 211 217 217 221 223 222 223 225 227 232 226 218 228 242 236
312 279 274 273 273 328 346 342 347 356 345 337 333 321 313 317 319 314 309 314 327 333 332 329 331 337 345 358 17 30 31 26 21 20 21 20 19 18 10 4 342 268 243 224 215 205 192 187 188 188 188 185 184 189 191 186 177 169 164 162 160 160 165 171 176 180 179 181 185 191 199 208 217 219 216 216 217 214 217 220 223 230 229 224 227 230 218
281 283 283 287 292 309 321 328 336 333 331 336 338 334 325 318 318 316 307 305 315 323 321 315 316 323 327 331 344 5 23 30 25 17 16 16 18 21 19 12 356 310 257 238 225 210 198 190 188 191 191 189 189 192 187 176 168 161 156 156 157 159 163 168 171 173 178 188 198 203 208 213 219 218 213 214 218 216 216 218 219 225 223 218 227 222 198
281 273 265 273 285 293 297 300 312 322 325 333 336 332 326 322 321 316 309 308 313 315 314 309 305 313 321 320 324 335 354 15 20 14 9 8 7 10 17 17 8 349 299 255 236 220 207 199 193 192 194 196 195 189 177 165 156 149 144 145 149 155 159 162 169 178 187 196 205 215 221 222 221 218 215 218 219 219 221 218 215 220 218 210 220 218 186
289 280 238 267 287 290 291 283 252 251 319 330 327 323 320 317 316 316 316 315 313 310 310 304 300 306 316 316 316 321 330 347 2 4 4 4 359 357 1 9 13 9 352 314 271 239 221 213 207 199 198 202 200 185 170 159 145 137 138 141 145 153 163 168 180 196 207 212 217 223 223 221 217 213 214 221 220 214 214 210 206 212 214 206 212 214 189
288 281 267 290 298 294 295 292 270 270 330 332 318 313 311 304 304 311 314 316 318 317 316 309 301 301 305 305 308 318 322 319 330 349 354 356 355 348 346 353 5 11 6 351 326 295 263 233 220 213 207 205 196 176 162 156 144 137 141 151 157 167 177 184 194 207 215 219 221 224 219 214 216 215 211 221 226 216 209 206 197 199 204 204 209 216 202
287 279 290 322 313 296 291 332 296 298 318 320 311 309 307 299 303 314 316 316 319 319 320 318 306 298 298 298 303 315 320 311 306 321 332 339 344 341 332 335 350 3 5 359 342 320 302 282 254 234 218 205 185 152 135 143 147 148 156 165 172 180 187 192 197 204 211 214 216 221 218 207 208 213 203 208 220 218 229 235 224 216 222 210 201 208 208
297 310 330 335 315 297 305 322 301 298 307 307 302 305 304 297 306 317 316 317 319 318 320 323 314 304 302 297 294 297 302 307 312 307 307 320 333 331 319 314 326 350 359 355 344 325 307 293 276 250 221 200 167 143 143 151 156 159 164 170 177 186 192 197 197 196 201 205 204 208 212 202 193 203 216 220 217 208 215 225 221 226 255 257 183 193 201
307 312 316 317 305 294 299 304 301 300 303 299 296 297 296 296 306 312 311 314 318 317 318 321 316 309 298 289 286 284 286 288 279 272 280 287 297 305 304 298 302 329 352 353 344 331 319 303 282 256 215 158 142 148 159 173 181 177 173 175 182 189 195 198 194 189 192 194 189 189 197 195 186 191 208 221 227 224 220 217 213 217 234 240 219 207 180
297 299 306 309 301 294 294 297 298 297 294 291 290 289 291 296 301 302 303 307 309 309 312 313 312 310 298 282 274 272 278 279 256 248 248 229 233 261 278 278 285 316 344 352 342 325 316 309 295 280 200 148 156 168 182 195 198 190 184 185 189 192 194 193 187 184 184 181 175 175 181 184 189 200 201 200 213 221 222 221 215 213 220 226 213 198 178
292 297 303 299 291 290 290 289 287 283 281 280 280 284 292 297 297 297 298 297 297 299 301 302 306 310 307 294 280 271 267 259 242 240 241 230 226 239 252 255 260 303 334 337 323 305 299 297 296 295 160 155 172 190 202 207 204 199 198 200 199 196 194 188 181 181 180 174 171 174 177 179 187 200 205 202 194 185 187 198 202 198 200 200 190 183 179
290 292 294 289 284 284 284 281 280 282 286 286 283 284 289 290 289 289 288 286 286 289 291 292 297 303 305 303 296 284 271 260 247 235 230 232 230 227 229 234 236 272 307 304 294 288 288 286 277 258 175 170 186 201 208 212 212 208 207 209 208 204 198 188 177 180 184 180 177 178 177 177 183 191 198 202 193 168 157 159 166 178 190 193 188 181 176
292 293 294 292 289 287 289 292 295 298 297 292 288 286 286 284 282 280 279 277 278 279 280 282 287 292 296 298 296 288 275 266 256 243 239 246 249 238 220 204 196 219 255 273 277 280 281 274 254 228 202 194 201 209 212 215 217 213 212 214 214 211 205 196 183 183 190 191 190 187 179 174 178 185 189 192 187 174 165 163 164 169 176 183 187 183 175
297 298 297 295 295 297 299 298 296 294 291 287 284 284 284 283 281 276 273 273 273 273 273 275 277 281 287 290 289 288 280 270 261 258 261 266 267 261 249 210 200 212 220 229 247 263 270 267 253 237 222 208 204 212 219 220 219 218 217 217 214 208 202 198 193 193 196 194 195 199 189 177 175 178 181 184 184 179 174 173 174 173 169 171 180 181 176
307 306 301 295 295 297 298 295 291 288 287 285 284 284 283 284 283 280 277 278 277 274 272 272 272 274 277 278 279 278 274 270 267 262 262 266 265 259 258 252 242 238 232 229 234 244 254 260 261 253 240 219 209 217 226 227 225 223 222 219 216 207 199 196 198 204 204 195 192 198 197 184 178 176 176 178 182 181 178 179 181 178 170 166 169 175 180
310 309 304 299 296 296 295 293 291 290 288 287 285 283 283 284 284 283 282 283 282 278 274 273 272 271 271 271 270 267 264 266 269 262 253 251 253 250 243 238 242 249 250 245 241 238 238 244 253 259 255 232 218 222 230 232 230 228 226 224 221 214 205 199 200 206 207 199 189 190 190 187 184 182 177 176 178 180 179 179 181 183 177 171 172 176 182
311 307 303 299 297 296 294 293 293 293 292 290 287 284 283 282 282 283 283 282 278 276 275 274 269 267 268 270 269 266 265 264 261 256 247 242 242 243 239 237 244 252 256 255 252 249 244 240 244 249 251 242 230 228 232 232 229 227 227 226 223 218 211 203 200 203 206 199 187 182 183 186 189 189 186 180 178 180 180 178 181 186 183 179 180 182 181
311 308 306 304 303 302 301 299 295 294 293 292 289 286 284 283 282 284 286 284 281 280 280 277 273 270 271 272 270 267 268 265 258 250 243 242 244 242 237 239 247 253 257 258 258 257 256 253 249 244 240 239 236 233 232 232 229 225 224 224 222 219 214 208 204 204 205 199 188 181 183 186 188 192 193 188 182 182 181 180 183 189 188 186 187 186 181
318 314 313 313 312 308 304 301 298 295 293 292 290 288 287 286 282 279 278 278 280 280 277 275 275 275 274 272 270 267 267 265 259 250 245 243 243 241 240 246 250 250 251 254 258 260 259 258 255 250 242 237 237 235 233 232 230 226 223 221 219 216 211 208 207 206 204 199 191 186 185 185 187 192 196 191 187 185 183 181 185 190 191 191 190 186 182
314 306 302 302 303 299 297 296 298 297 293 290 289 288 287 286 284 281 278 275 274 276 278 279 280 280 276 271 268 265 262 260 256 251 248 248 247 245 246 249 250 250 251 255 259 261 261 258 255 253 247 241 239 237 235 232 230 227 223 219 214 211 206 202 202 205 206 201 192 188 187 186 187 191 193 191 189 188 185 184 187 190 193 194 190 186 188
311 305 301 302 300 297 295 296 298 297 295 291 290 290 290 290 290 290 287 281 275 273 274 276 277 275 272 268 265 261 257 254 254 253 253 253 255 256 257 256 253 252 255 257 256 257 258 257 255 252 249 244 240 237 234 232 229 226 222 216 211 208 205 200 199 203 205 200 191 189 192 192 189 189 190 190 191 190 187 186 188 190 195 195 188 183 190
320 319 313 307 301 298 297 299 299 298 295 290 289 292 292 291 289 288 286 284 280 276 272 269 268 267 265 263 261 258 254 252 253 255 256 257 260 263 263 258 254 254 259 261 259 255 254 253 250 247 245 245 241 236 233 231 227 223 218 211 208 208 208 205 202 201 200 197 194 193 195 194 189 185 186 191 195 194 190 188 189 192 197 199 192 183 186
326 326 321 314 309 308 309 307 303 300 294 288 286 288 289 288 288 288 286 284 282 280 276 272 267 265 263 261 259 258 256 254 254 256 259 263 268 270 266 260 254 254 258 261 258 253 251 251 247 242 242 243 242 236 231 228 226 222 215 206 204 206 208 207 206 203 198 194 193 191 190 189 187 184 185 192 197 196 191 187 190 195 200 201 197 189 185
324 324 320 317 316 316 313 309 303 298 293 290 288 287 286 287 287 287 284 282 281 280 279 277 273 270 268 266 263 260 258 257 258 261 263 265 266 265 261 256 253 252 256 262 265 263 260 259 254 249 246 245 243 239 232 225 222 222 217 207 204 207 208 209 211 211 206 200 196 190 187 187 188 186 187 192 194 194 191 188 189 195 201 202 200 197 192
323 323 324 323 321 318 315 315 314 308 300 297 294 292 290 289 287 284 282 281 282 280 277 276 276 274 270 267 264 263 262 263 264 263 262 261 260 259 258 257 257 259 263 268 270 267 265 261 257 253 250 247 244 241 235 224 218 221 221 212 207 210 212 210 211 214 212 207 202 195 189 189 188 185 185 188 190 191 191 189 189 195 200 201 202 202 200
329 331 329 325 324 324 324 327 329 323 314 306 301 299 298 294 291 290 289 287 285 281 274 270 271 271 270 269 270 271 274 276 275 270 266 264 261 260 261 262 262 262 262 262 262 262 262 259 256 255 255 252 247 244 238 225 217 220 222 216 210 212 213 207 204 207 206 201 199 195 191 190 189 184 182 184 187 189 189 188 190 197 203 203 204 207 207
336 338 335 330 330 333 332 331 332 330 325 322 316 311 308 304 299 299 299 299 296 291 283 275 270 268 272 278 282 283 283 282 277 269 266 265 265 264 265 267 267 265 264 265 267 267 265 260 257 257 258 256 251 246 240 230 223 223 223 216 211 213 212 205 202 205 204 199 197 196 193 190 187 182 180 182 187 189 189 189 192 200 207 207 207 209 211
335 338 337 335 334 333 329 327 329 331 331 332 331 324 320 316 307 300 299 300 296 290 288 287 283 276 275 279 284 282 277 269 263 256 249 250 258 266 272 277 281 285 286 284 281 276 270 264 258 255 255 254 252 247 241 234 231 228 223 215 211 212 211 207 204 207 208 205 201 197 192 187 183 178 178 184 191 195 195 194 195 200 206 208 209 212 214
333 335 335 334 335 334 330 329 333 335 333 332 332 328 324 320 313 308 310 315 313 308 309 312 307 298 293 291 287 281 273 261 255 253 249 250 257 261 263 269 279 290 293 291 287 282 276 271 266 261 259 258 255 249 241 237 234 228 220 213 209 208 209 207 206 207 209 208 204 198 191 186 183 181 182 188 195 198 197 196 196 198 200 205 211 218 220
328 330 329 328 329 331 331 333 335 334 329 325 326 329 329 324 322 323 322 317 315 315 316 315 308 305 307 310 304 293 290 287 277 269 267 267 263 257 256 267 283 295 298 297 295 290 286 284 281 276 270 262 254 248 245 241 234 224 214 210 208 206 206 206 206 207 209 207 203 199 193 187 183 183 185 189 195 197 197 196 197 198 200 206 216 225 228
325 324 324 324 325 326 330 332 333 332 329 324 325 342 349 334 320 321 325 314 309 315 318 310 303 306 312 317 317 307 303 306 306 300 294 291 289 294 303 306 304 304 304 304 304 303 305 307 303 291 275 261 253 249 247 244 236 223 210 205 205 205 205 203 203 207 208 203 197 195 190 181 175 178 182 187 193 197 195 195 197 199 201 207 217 226 230
316 315 321 328 324 318 321 327 329 332 336 333 336 359 359 338 318 317 339 327 316 320 323 318 320 324 324 329 332 323 315 323 330 321 310 304 301 307 313 312 306 307 311 314 316 320 325 329 323 303 277 260 252 247 241 238 235 224 211 203 200 200 200 199 202 207 207 199 192 189 182 169 164 168 174 179 187 194 195 196 199 202 204 211 221 229 231
299 304 320 332 320 311 320 335 340 339 339 341 344 349 342 330 321 333 352 336 329 346 355 354 354 348 340 338 335 327 336 4 2 338 322 314 305 300 306 312 316 325 330 332 339 345 345 345 344 331 291 252 239 235 232 232 230 223 213 205 199 195 194 195 198 197 191 183 178 176 171 165 166 171 176 179 185 194 198 201 203 205 207 213 222 229 232
305 313 327 334 317 305 317 336 342 331 325 329 330 326 323 319 321 344 350 344 8 27 27 27 28 18 4 353 346 349 10 25 13 342 330 326 319 315 323 332 337 346 349 350 360 6 4 2 3 3 356 269 212 218 222 218 212 205 197 189 186 188 191 190 184 173 164 159 156 153 155 162 170 177 183 187 190 195 201 204 206 210 216 220 225 229 231
313 317 324 329 316 300 311 325 328 320 320 324 321 315 313 312 324 18 13 22 52 61 58 54 47 40 37 35 30 28 28 23 9 354 344 335 329 335 355 1 357 359 2 1 6 13 16 20 24 26 32 53 87 152 183 178 175 172 162 152 157 167 171 165 157 152 148 145 141 137 141 155 167 180 194 199 200 204 209 207 203 205 211 216 223 229 231
315 319 324 329 330 323 313 309 301 294 297 304 305 307 320 343 17 35 33 34 45 54 54 49 41 36 35 38 37 31 23 17 13 9 359 346 342 354 9 13 10 10 11 10 10 16 24 33 40 45 56 72 81 89 108 128 141 144 137 132 136 140 133 125 123 124 123 123 124 124 131 151 182 206 210 204 198 200 205 207 214 224 224 221 224 233 237
310 315 317 319 320 315 273 259 275 286 298 309 321 340 4 18 31 38 35 33 38 44 43 43 42 37 33 34 34 27 19 20 22 17 8 0 360 5 13 18 20 21 23 24 25 28 33 39 44 52 67 82 87 90 98 111 120 125 126 129 133 132 124 117 113 110 112 117 122 126 134 156 203 220 210 189 174 175 179 182 208 232 233 230 231 235 238
309 315 316 317 322 325 327 350 18 11 2 356 0 9 14 23 40 45 37 31 33 32 30 37 44 40 33 32 30 23 19 25 29 24 15 13 15 17 21 24 24 25 28 30 31 32 34 37 42 50 60 71 79 84 88 96 105 111 114 118 122 123 120 117 115 116 119 122 123 126 136 155 188 205 188 155 143 149 154 161 183 210 231 256 263 257 253